Voltar ao catálogo

IRIDIUM 33 DEB

AtivoPO
NORAD 46974·DEBRIS·🇺🇸 United States

Lançado Sep 14, 1997 de Baikonur Cosmodrome

Loading…

Próximas Passagens (próximas 24 horas)

TLE

AtualizadoSource: Space-Track

Época: Sep 14, 2026, 12:08 UTC

1 46974U 97051ACG 26257.50568446  .00004933  00000-0  12256-2 0  9999
2 46974  86.3013 344.3023 0083564 349.9073  10.0448 14.49525895614979

Acompanhe IRIDIUM 33 DEB em tempo real com AllMySat

Download on the App Store